Location: Natural Bridges National Monument
(37.6093°N, 109.9767°W)
Time: 21:36:09
(UTC-06:00)

Daily predictions for brighter satellites

Satellite Brightness Start Highest point End
(mag) Time Altitude Azimuth Time Altitude Azimuth Time Altitude Azimuth
Milstar 3 Cent rocket 3.6 20:58:39 10° WSW 21:04:30 44° S 21:15:32 10° ESE
Cosmos 407 Rocket 4.2 21:08:42 10° SSW 21:13:44 60° WNW 21:18:49 10° N
Cosmos 1867 4.5 21:10:33 10° SSE 21:15:02 27° ESE 21:19:32 10° NE
Cosmos 1821 Rocket 4.5 21:10:12 10° NNW 21:16:33 69° W 21:22:50 10° S
Resurs 1-3 4.4 21:12:48 10° S 21:17:05 55° W 21:21:24 10° NNW
Cosmos 1340 Rocket 3.4 21:15:04 10° SSE 21:18:47 38° E 21:22:33 10° NNE
Spot 1 4.1 21:21:41 10° SSE 21:25:40 58° ENE 21:29:47 10° N
Cosmos 1954 Rocket 4.1 21:21:59 10° SSW 21:27:11 85° WNW 21:32:24 10° NNE
ATLAS 5 CENTAUR R/B 1.9 21:24:15 10° SSW 21:28:40 50° ESE 21:33:24 10° NE
Cosmos 1980 3.9 21:23:08 10° NNW 21:28:51 79° WSW 21:34:30 10° SSE
YAOGAN 6 3.0 21:25:53 10° SSE 21:29:20 46° ENE 21:32:52 10° N
SJ-11-01 4.3 21:25:07 10° SSE 21:29:51 78° ENE 21:34:36 10° N
Cosmos 2084 3.8 21:26:12 10° S 21:29:56 35° ESE 21:33:31 10° NE
CZ-4B DEB 2.9 21:27:10 10° SSE 21:30:01 49° ENE 21:32:55 10° N
Cosmos 1934 Rocket 4.3 21:24:28 10° NNW 21:30:36 69° W 21:36:36 10° S
Cosmos 1850 Rocket 4.3 21:27:07 10° S 21:32:03 47° ESE 21:37:00 10° NNE
SPOT 5 4.5 21:28:38 10° ESE 21:32:06 20° ENE 21:35:41 10° NNE
Lacrosse 5 4.1 21:29:12 10° NNW 21:32:21 16° NNE 21:35:28 10° ENE
Helios 1A 2.9 21:29:54 10° SSE 21:34:02 86° ENE 21:38:12 10° NNW
Cosmos 614 Rocket 3.9 21:28:53 10° S 21:34:05 74° ESE 21:39:17 10° NNE
Helios 1B rocket 2.4 21:30:33 10° NNE 21:34:44 88° ESE 21:38:51 10° SSW
Cosmos 2237 Rocket 2.5 21:33:36 10° NNW 21:39:12 70° WSW 21:44:46 10° SSE
Cosmos 1842 Rocket 3.7 21:35:23 10° N 21:39:47 78° W 21:44:07 10° S
Cosmos 1605 Rocket 4.1 21:34:51 10° N 21:41:07 83° W 21:47:27 10° S
H-2A R/B 3.7 21:41:25 11° ESE 21:45:04 21° ENE 21:49:00 10° NNE
ERS-1 Rocket 3.3 21:41:42 12° SSE 21:46:17 52° ENE 21:51:10 10° N
Meteor 2-15 Rocket 4.4 21:40:31 10° S 21:46:34 88° E 21:52:40 10° N
Atlas Centaur 2 2.3 21:44:28 10° WSW 21:47:29 25° S 21:49:18 17° SE
USA 234 3.3 21:41:36 10° NE 21:48:01 55° SE 21:54:23 10° SSW
Lacrosse 4 Rocket 3.9 21:45:53 10° WSW 21:49:29 27° NW 21:53:12 10° N
Cosmos 1674 3.1 21:47:30 12° SSE 21:50:45 41° E 21:54:18 10° NNE
Cosmos 2227 Rocket 3.7 21:46:43 10° SW 21:51:59 40° WNW 21:57:17 10° N
Cosmos 1184 Rocket 3.5 21:49:02 10° SSW 21:52:19 58° W 21:55:40 10° N
Cosmos 1818 4.0 21:47:35 10° NNW 21:52:52 49° NE 21:56:55 17° SE
Cosmos 1908 3.9 21:49:15 10° N 21:52:53 37° E 21:55:14 18° SE
Cosmos 1741 Rocket 4.0 21:51:00 10° SSW 21:56:18 79° ESE 22:01:38 10° NNE
Cosmos 1727 Rocket 4.3 21:51:21 10° SSW 21:57:37 71° W 22:03:58 10° N
KORONAS-FOTON 4.4 21:59:18 19° SSE 22:01:29 36° E 22:05:00 10° NNE
SL-16 R/B 2.2 21:57:05 10° NNW 22:02:46 77° ENE 22:07:03 18° SSE
Cosmos 1408 Rocket 4.2 22:00:39 19° SSE 22:03:12 36° E 22:07:10 10° NNE
Tiangong 1 2.5 22:01:45 10° W 22:04:20 34° NNW 22:06:56 10° ENE
ARGOS 3.5 22:01:49 18° SE 22:05:40 49° ENE 22:10:53 10° N
Cosmos 1356 Rocket 3.4 22:03:32 12° S 22:07:27 65° E 22:11:42 10° NNE
MetOp-A 4.2 22:03:42 17° SSE 22:07:51 68° ENE 22:13:11 10° N
Cosmos 1076 Rocket 3.5 22:04:14 11° S 22:08:27 72° E 22:12:48 10° NNE
NOSS 3-4 (A) 4.2 22:08:04 10° NW 22:15:06 62° WSW 22:21:10 16° SSE
NOSS 3-4 (C) 4.2 22:08:09 10° NW 22:15:11 63° WSW 22:21:14 16° SSE
Terra 3.6 22:15:15 15° E 22:17:10 18° ENE 22:20:24 10° NNE
Okean 3 Rocket 4.2 22:15:46 10° SSW 22:20:12 58° W 22:24:38 10° N
Cosmos 2221 2.9 22:17:53 10° NNW 22:22:14 64° W 22:25:33 17° S
Cosmos 2333 Rocket 4.5 22:19:11 10° WNW 22:22:57 19° W 22:26:42 10° SW
Cosmos 2016 Rocket 4.0 22:22:17 10° N 22:28:30 64° E 22:32:10 25° SSE
Cosmos 2151 4.5 22:30:35 21° E 22:30:44 21° E 22:33:57 10° NE
Cosmos 2208 Rocket 4.1 22:26:26 10° NNW 22:31:47 82° WSW 22:34:57 25° S
NOAA 11 4.5 22:27:58 17° S 22:32:07 65° W 22:37:31 10° NNW
RESURS DK-1 3.4 22:30:12 10° N 22:34:01 33° ENE 22:35:16 28° E
Cosmos 2227 4.1 22:29:11 10° SSW 22:34:55 79° ESE 22:40:38 10° NNE
Cosmos 1242 Rocket 2.9 22:31:19 10° NNW 22:35:01 65° W 22:36:40 30° S
SL-08 RB Rocket 3.6 22:34:11 31° SSE 22:36:19 78° ENE 22:40:55 10° N
YAOGAN 11 4.1 22:35:53 30° S 22:38:07 85° WSW 22:42:40 10° NNW
Cosmos 1766 Rocket 3.6 22:35:44 20° SSW 22:38:39 78° W 22:43:01 10° N
SPOT 1/Viking Rocket 3.5 22:37:13 31° SSE 22:39:40 68° ENE 22:44:47 10° N
USA 245 3.0 22:40:57 47° S 22:41:45 73° W 22:45:34 10° NNW
SL-14 R/B 3.3 22:46:09 49° SSE 22:46:58 62° E 22:50:53 10° NNE
Meteor 2-2 Rocket 4.3 22:41:41 10° N 22:47:27 67° E 22:50:03 34° SSE
Cosmos 1328 Rocket 3.7 22:44:42 10° N 22:48:58 56° E 22:49:54 45° SE
Cosmos 2228 Rocket 3.4 22:46:23 10° N 22:50:53 55° E 22:51:58 43° SE
Cosmos 1328 3.7 22:51:25 52° SSE 22:52:16 72° E 22:56:19 10° NNE
Cosmos 1515 Rocket 4.0 22:48:26 10° N 22:52:34 43° E 22:53:11 40° ESE
Cosmos 1763 Rocket 4.2 22:48:24 10° N 22:53:12 39° ENE 22:54:37 32° ESE
Cosmos 1743 Rocket 3.4 22:54:02 49° SSE 22:55:05 69° E 22:59:23 10° NNE
H-2A R/B 3.1 22:54:28 30° E 22:55:06 31° ENE 22:58:54 10° N
EO 1 Delta rocket 3.8 22:54:27 37° S 22:56:22 87° W 23:00:58 10° N
Cosmos 1626 3.6 23:00:20 25° ENE 23:00:20 25° ENE 23:02:41 10° NNE
Cosmos 1300 2.5 22:55:48 10° N 22:59:39 79° E 23:00:02 68° SE
Cosmos 1151 Rocket 3.6 22:57:10 10° N 23:01:20 41° E 23:01:42 40° E
Delta 2 Rocket 4.4 22:56:07 10° SW 23:01:34 44° SSE 23:02:10 42° SE
Cosmos 2263 Rocket 2.4 23:03:21 42° SE 23:04:18 46° ESE 23:09:37 10° NE
Cosmos 1726 2.4 23:03:59 10° NNW 23:07:36 57° W 23:08:04 52° SW
SPOT 5 3.8 23:07:35 26° SSW 23:09:46 41° W 23:14:30 10° NNW
IGS 5A 3.5 23:10:27 57° E 23:10:46 59° ENE 23:14:51 10° N
SL-19 R/B 4.2 23:07:20 10° NNE 23:12:38 60° ESE 23:13:56 47° SSE
ATLAS 5 CENTAUR R/B 4.5 23:10:06 10° W 23:13:40 21° NW 23:17:27 10° N
OAO 1 Rocket 4.3 23:10:06 10° W 23:15:25 67° S 23:16:38 51° ESE
Lacrosse 5 1.9 23:11:06 10° NW 23:16:10 69° NE 23:17:19 50° ESE
Meteor 2-10 4.2 23:11:08 10° N 23:16:45 81° W 23:18:41 43° S
Cosmos 2123 Rocket 4.4 23:15:14 22° SSW 23:19:17 61° W 23:25:26 10° N
Abrixas rocket 4.1 23:17:04 10° NW 23:19:49 25° NNE 23:20:10 24° NNE
Cosmos 468 Rocket 4.2 23:15:30 10° NNW 23:20:32 59° WSW 23:21:53 44° SSW
Cosmos 371 Rocket 3.1 23:17:29 10° NNW 23:22:19 87° WSW 23:23:02 65° S
H-2A R/B 2.8 23:22:03 32° SSW 23:24:04 47° W 23:29:16 10° NNW
Cosmos 1503 Rocket 4.2 23:24:16 50° ESE 23:24:20 50° ESE 23:29:20 10° NNE
Cosmos 1603 4.0 23:24:14 10° NNW 23:29:45 57° WSW 23:31:12 44° SSW
USA 234 4.4 23:24:46 10° NE 23:30:51 43° NW 23:36:55 10° WSW
Cosmos 1455 3.4 23:29:58 10° N 23:32:48 34° NE 23:32:48 34° NE
Tiangong 1 3.6 23:37:52 10° WNW 23:39:04 19° NW 23:39:04 19° NW
Sich 1 4.5 23:44:49 26° ENE 23:44:49 26° ENE 23:47:22 10° NNE
deb Chang Zheng 4 3.6 23:39:49 10° N 23:44:11 72° WNW 23:44:23 70° W
Cosmos 1943 3.0 23:41:19 10° NNW 23:47:00 85° WSW 23:47:48 67° S
Cosmos 1703 3.9 23:51:37 55° NW 23:51:37 55° NW 23:55:10 10° N
Cosmos 2058 3.6 23:51:16 47° W 23:51:24 47° W 23:55:30 10° N
CZ-4B R/B 3.4 23:47:13 10° NNE 23:52:32 89° WNW 23:53:06 72° SSW
CZ-4 R/B 4.0 23:48:11 10° N 23:53:01 69° WNW 23:53:35 62° WSW
CZ-4C R/B 3.4 23:54:51 26° ENE 23:54:51 26° ENE 23:58:03 10° NE
Cosmos 1707 Rocket 4.4 23:50:11 10° N 23:53:51 40° ENE 23:53:51 40° ENE
Terra 2.5 23:54:08 42° WSW 23:54:33 43° W 23:59:06 10° NNW
